Location: Newark
(32.8014°N, 52.8711°E)
Time: 10:41:41
(UTC+00:00)

LightSail 2 - Visible Passes

Search period start: 25 January 2020 00:00
Search period end: 04 February 2020 00:00
Orbit: 704 x 719 km, 24.0° (Epoch: 24 January)

Date Brightness Start Highest point End Pass type
(mag) Time Alt. Az. Time Alt. Az. Time Alt. Az.
25 Jan 6.9 15:42:10 10° WSW 15:46:13 23° SSW 15:48:10 19° SSE visible
26 Jan 6.9 14:43:37 10° WSW 14:47:52 26° S 14:52:09 10° SE visible
26 Jan 7.6 16:30:07 10° SW 16:32:34 14° SSW 16:32:34 14° SSW visible
27 Jan 7.4 15:31:05 10° WSW 15:34:29 18° SSW 15:37:53 10° SSE visible
28 Jan 7.3 14:32:18 10° WSW 14:36:09 21° SSW 14:40:00 10° SE visible
29 Jan 7.7 15:20:40 10° SW 15:22:40 12° SSW 15:24:41 10° S visible
30 Jan 7.7 14:21:19 10° SW 14:24:21 16° SSW 14:27:22 10° SSE visible
